Tracking 29892 objects as of 21-Nov-2024
HD Live streaming from Space Station
objects crossing your sky now

STARLINK-1336

Track STARLINK-1336 now!
10-day predictions
STARLINK-1336 is classified as:


NORAD ID: 45557
Int'l Code: 2020-025AC
Perigee: 553.3 km
Apogee: 555.2 km
Inclination: 53.1 °
Period: 95.6 minutes
Semi major axis: 6925 km
RCS: Unknown
Launch date: April 22, 2020
Source: United States (US)
Launch site: AIR FORCE EASTERN TEST RANGE (AFETR)
Your satellite tracking list
Your tracking list is empty




NASA's NSSDC Master Catalog

Two Line Element Set (TLE):
1 45557U 20025AC  24325.27111472  .00005794  00000-0  40729-3 0  9996
2 45557  53.0534  56.3642 0001357  82.3881 277.7262 15.06422348253862
Source of the keplerian elements: AFSPC